EW5835 Weather Reports


Display with metric or nautical units.
time (UTC)temp
F
wind
direction
speed
MPH
gust
MPH
rain 1hr
in
rain 24hr
in
rain mn
in
humidity
%
barometer
mb
20260504025747 38 266 0.0 0.0 0.00 0.00 0.00 81 1011.9
20260504025248 38 266 0.0 0.0 0.00 0.00 0.00 81 1011.9
20260504024747 38 266 0.0 0.0 0.00 0.00 0.00 79 1011.8
20260504024252 39 266 0.0 0.0 0.00 0.00 0.00 79 1011.8
20260504024247 39 266 0.0 0.0 0.00 0.00 0.00 79 1011.8
20260504023247 39 266 0.0 0.0 0.00 0.00 0.00 79 1011.9
20260504022746 40 266 0.0 0.0 0.00 0.00 0.00 78 1011.9
20260504022245 40 266 0.0 0.0 0.00 0.00 0.00 76 1011.8
20260504021746 40 266 0.0 0.0 0.00 0.00 0.00 76 1011.7
20260504021251 41 268 0.0 0.0 0.00 0.00 0.00 76 1011.6
20260504021245 40 266 0.0 0.0 0.00 0.00 0.00 76 1011.7
20260504020745 41 266 0.0 0.0 0.00 0.00 0.00 76 1011.6
20260504015745 41 258 0.0 0.0 0.00 0.00 0.00 75 1011.7
20260504015245 41 268 0.0 0.0 0.00 0.00 0.00 73 1011.6
20260504014750 42 268 0.0 0.0 0.00 0.00 0.00 71 1011.5
20260504014744 41 268 0.0 0.0 0.00 0.00 0.00 73 1011.6
20260504014245 42 268 0.0 0.0 0.00 0.00 0.00 72 1011.6
20260504013244 42 268 0.0 0.0 0.00 0.00 0.00 71 1011.6
20260504012745 43 268 0.0 0.0 0.00 0.00 0.00 71 1011.5
20260504012245 43 266 0.0 0.0 0.00 0.00 0.00 70 1011.5
20260504011744 43 274 0.0 0.0 0.00 0.00 0.00 69 1011.5
20260504011245 44 316 0.0 0.0 0.00 0.00 0.00 66 1011.3
20260504010744 44 316 0.0 0.0 0.00 0.00 0.00 66 1011.2
20260504010245 45 316 0.0 0.0 0.00 0.00 0.00 64 1011.2
20260504005744 46 316 0.0 0.0 0.00 0.00 0.00 62 1011.3
20260504005243 46 316 0.0 0.0 0.00 0.00 0.00 61 1011.2
20260504004743 47 316 0.0 0.0 0.00 0.00 0.00 59 1011.1
20260504004243 47 316 0.0 0.0 0.00 0.00 0.00 58 1011.1
20260504003743 47 316 0.0 0.0 0.00 0.00 0.00 56 1011.0
20260504003242 47 316 0.0 0.0 0.00 0.00 0.00 55 1011.0
20260504002741 48 316 0.0 0.0 0.00 0.00 0.00 54 1010.9
20260504002242 48 316 0.0 0.0 0.00 0.00 0.00 53 1010.9
20260504001741 49 316 0.0 0.0 0.00 0.00 0.00 53 1010.8
20260504001242 49 220 0.0 0.0 0.00 0.00 0.00 51 1010.6
20260504000743 49 220 0.0 0.0 0.00 0.00 0.00 50 1010.6
20260504000241 50 220 0.0 0.0 0.00 0.00 0.00 49 1010.6
20260503235743 50 220 0.0 0.0 0.00 0.00 0.00 48 1010.6
20260503235242 51 220 0.0 0.0 0.00 0.00 0.00 48 1010.5
20260503234742 51 220 0.0 0.0 0.00 0.00 0.00 47 1010.5
20260503234241 52 219 0.0 0.0 0.00 0.00 0.00 45 1010.5
20260503233745 53 266 0.0 0.0 0.00 0.00 0.00 44 1010.4
20260503233741 52 231 0.0 0.0 0.00 0.00 0.00 44 1010.4
20260503232740 53 266 0.0 0.0 0.00 0.00 0.00 43 1010.4
20260503232243 54 313 0.0 3.0 0.00 0.00 0.00 42 1010.3
20260503232239 53 348 0.0 3.0 0.00 0.00 0.00 42 1010.3
20260503231239 54 166 0.0 0.0 0.00 0.00 0.00 42 1010.2
20260503230743 54 324 0.0 0.0 0.00 0.00 0.00 41 1010.2
20260503230738 54 250 0.0 0.0 0.00 0.00 0.00 41 1010.3
20260503225740 54 180 0.0 1.0 0.00 0.00 0.00 40 1010.1
20260503225239 54 220 0.0 6.0 0.00 0.00 0.00 40 1010.1
20260503224738 54 243 1.0 6.0 0.00 0.00 0.00 40 1010.1
20260503224239 54 265 0.0 1.0 0.00 0.00 0.00 40 1010.1
20260503223745 54 244 0.0 5.0 0.00 0.00 0.00 39 1010.0
20260503223739 54 266 0.0 5.0 0.00 0.00 0.00 40 1010.0
20260503222737 55 168 0.0 1.0 0.00 0.00 0.00 38 1010.0
20260503222239 55 320 0.0 9.0 0.00 0.00 0.00 37 1009.8
20260503221739 55 329 1.0 9.0 0.00 0.00 0.00 38 1010.0
20260503221237 55 314 1.0 4.0 0.00 0.00 0.00 39 1009.9
20260503220737 55 116 0.0 0.0 0.00 0.00 0.00 37 1009.8
20260503220239 55 310 0.0 4.0 0.00 0.00 0.00 37 1009.9
20260503215737 55 13 0.0 13.0 0.00 0.00 0.00 38 1009.9
20260503215237 55 125 2.0 13.0 0.00 0.00 0.00 38 1009.8
20260503214737 55 106 0.0 0.0 0.00 0.00 0.00 36 1009.8
20260503214237 55 282 0.0 1.0 0.00 0.00 0.00 37 1009.7
20260503213736 55 138 0.0 3.0 0.00 0.00 0.00 36 1009.7
20260503213240 55 148 0.0 1.0 0.00 0.00 0.00 36 1009.7
20260503213236 55 331 0.0 3.0 0.00 0.00 0.00 36 1009.7
20260503212235 55 288 0.0 12.0 0.00 0.00 0.00 36 1009.6
20260503211736 55 333 0.0 12.0 0.00 0.00 0.00 34 1009.6
20260503211236 55 37 0.0 5.0 0.00 0.00 0.00 34 1009.6
20260503210735 55 255 0.0 10.0 0.00 0.00 0.00 34 1009.6
20260503210241 55 148 0.0 11.0 0.00 0.00 0.00 32 1009.5
20260503210235 55 20 1.0 13.0 0.00 0.00 0.00 32 1009.5
20260503205734 55 149 0.0 13.0 0.00 0.00 0.00 32 1009.6
20260503204734 55 347 2.0 7.0 0.00 0.00 0.00 33 1009.3
20260503204233 55 213 0.0 2.0 0.00 0.00 0.00 31 1009.4
20260503203736 56 343 0.0 6.0 0.00 0.00 0.00 31 1009.5
20260503203235 56 235 0.0 6.0 0.00 0.00 0.00 31 1009.5
20260503202734 56 219 0.0 9.0 0.00 0.00 0.00 31 1009.5
20260503202232 55 23 1.0 9.0 0.00 0.00 0.00 31 1009.4
20260503201733 56 138 1.0 9.0 0.00 0.00 0.00 31 1009.5
20260503201233 55 86 0.0 9.0 0.00 0.00 0.00 30 1009.5
20260503200734 55 68 0.0 6.0 0.00 0.00 0.00 31 1009.6
20260503200235 55 262 1.0 14.0 0.00 0.00 0.00 32 1009.7
20260503195733 55 264 1.0 14.0 0.00 0.00 0.00 32 1009.8
20260503195237 55 252 0.0 12.0 0.00 0.00 0.00 32 1009.8
20260503195233 55 254 1.0 11.0 0.00 0.00 0.00 33 1009.7
20260503194233 55 1 2.0 12.0 0.00 0.00 0.00 31 1009.9
20260503193733 54 285 0.0 10.0 0.00 0.00 0.00 33 1010.3
20260503193232 54 331 1.0 10.0 0.00 0.00 0.00 33 1010.0
20260503192732 54 11 0.0 3.0 0.00 0.00 0.00 35 1010.1
20260503192233 54 212 0.0 3.0 0.00 0.00 0.00 38 1010.3
20260503191730 53 141 0.0 12.0 0.00 0.00 0.00 36 1010.2
20260503191232 54 321 3.0 12.0 0.00 0.00 0.00 33 1010.4
20260503190732 54 180 1.0 10.0 0.00 0.00 0.00 33 1010.3
20260503190230 55 276 3.0 9.0 0.00 0.00 0.00 33 1010.4
20260503185730 55 188 0.0 15.0 0.00 0.00 0.00 36 1010.5
20260503185232 54 207 0.0 15.0 0.00 0.00 0.00 35 1010.4
20260503184731 54 72 0.0 6.0 0.00 0.00 0.00 40 1010.5
20260503184230 53 245 1.0 11.0 0.00 0.00 0.00 36 1010.6
20260503183735 53 99 1.0 11.0 0.00 0.00 0.00 38 1010.7
20260503183731 53 269 0.0 11.0 0.00 0.00 0.00 36 1010.5
20260503182729 54 58 3.0 11.0 0.00 0.00 0.00 37 1010.7
20260503182229 53 241 1.0 10.0 0.00 0.00 0.00 38 1010.8
20260503181730 53 186 2.0 10.0 0.00 0.00 0.00 38 1010.6
20260503181230 53 252 0.0 3.0 0.00 0.00 0.00 41 1010.9
20260503180734 52 337 1.0 9.0 0.00 0.00 0.00 38 1010.9
20260503180729 52 1 0.0 9.0 0.00 0.00 0.00 40 1010.9
20260503175729 51 237 0.0 5.0 0.00 0.00 0.00 40 1010.9
20260503175228 51 329 0.0 9.0 0.00 0.00 0.00 41 1011.0
20260503174737 51 51 2.0 18.0 0.00 0.00 0.00 37 1011.0
20260503174727 51 295 1.0 9.0 0.00 0.00 0.00 38 1011.0
20260503174228 51 248 0.0 9.0 0.00 0.00 0.00 39 1011.1
20260503173729 51 264 0.0 18.0 0.00 0.00 0.00 38 1011.0
20260503172727 52 281 0.0 10.0 0.00 0.00 0.00 41 1011.1
20260503172228 51 345 0.0 10.0 0.00 0.00 0.00 41 1011.1
20260503171726 51 223 0.0 7.0 0.00 0.00 0.00 42 1011.0
20260503171225 50 355 0.0 12.0 0.00 0.00 0.00 44 1011.1
20260503170848 49 271 0.0 9.0 0.00 0.00 0.00 43 1011.3
20260503170731 50 131 0.0 5.0 0.00 0.00 0.00 43 1011.3
20260503170727 50 240 1.0 12.0 0.00 0.00 0.00 44 1011.3
20260503150724 47 230 0.0 0.0 0.00 0.00 0.00 49 1011.8
20260503150222 47 6 0.0 2.0 0.00 0.00 0.00 47 1011.8
20260503130719 45 166 0.0 1.0 0.00 0.00 0.00 60 1012.3
20260503130223 44 123 0.0 2.0 0.00 0.00 0.00 58 1012.3
20260503110714 41 80 0.0 0.0 0.00 0.00 0.00 69 1011.7
20260503110214 41 20 0.0 0.0 0.00 0.00 0.00 72 1011.7
20260503100219 35 330 0.0 0.0 0.00 0.00 0.00 78 1011.1
20260503100214 35 123 0.0 0.0 0.00 0.00 0.00 78 1011.1
20260503090216 34 78 0.0 0.0 0.00 0.00 0.00 82 1011.0
20260503090212 34 78 0.0 0.0 0.00 0.00 0.00 82 1010.9
20260503081208 34 274 0.0 0.0 0.00 0.00 0.00 84 1011.3
20260503080709 34 274 0.0 0.0 0.00 0.00 0.00 84 1011.3
20260503080210 33 274 0.0 0.0 0.00 0.00 0.00 83 1011.2
20260503072708 34 279 0.0 0.0 0.00 0.01 0.00 84 1011.2
20260503072207 34 268 0.0 0.0 0.00 0.01 0.00 83 1011.3
20260503071713 34 275 0.0 0.0 0.00 0.01 0.00 83 1011.3
20260503071708 34 264 0.0 0.0 0.00 0.01 0.00 83 1011.3
20260503070706 34 268 0.0 0.0 0.00 0.01 0.00 84 1011.3
20260503070206 34 272 0.0 0.0 0.00 0.01 0.00 83 1011.3
20260503054204 34 314 0.0 0.0 0.00 0.12 0.00 84 1012.1
20260503053704 34 314 0.0 0.0 0.00 0.12 0.00 84 1012.1
20260503053203 34 316 0.0 0.0 0.00 0.12 0.00 83 1012.2
20260503052704 34 275 0.0 0.0 0.00 0.13 0.00 83 1012.2
20260503052207 35 275 0.0 0.0 0.00 0.14 0.00 82 1012.4
20260503052203 34 275 0.0 0.0 0.00 0.14 0.00 83 1012.3
20260503051204 35 275 0.0 0.0 0.00 0.14 0.00 81 1012.3
20260503050704 35 338 0.0 0.0 0.00 0.15 0.00 80 1012.3
20260503050203 35 259 0.0 0.0 0.00 0.15 0.00 79 1012.3
20260503045703 36 285 0.0 0.0 0.00 1.45 0.00 78 1012.4
20260503045202 36 286 0.0 0.0 0.00 1.45 0.00 77 1012.4
20260503044703 36 286 0.0 0.0 0.00 1.45 0.00 76 1012.4
20260503044203 37 293 0.0 0.0 0.00 1.45 0.00 74 1012.5
20260503043703 37 324 0.0 0.0 0.00 1.46 0.00 73 1012.6
20260503043206 38 324 0.0 0.0 0.00 1.49 0.00 72 1012.6
20260503043202 38 324 0.0 0.0 0.00 1.48 0.00 72 1012.5
20260503042201 38 326 0.0 0.0 0.00 1.51 0.00 71 1012.6
20260503041705 38 330 0.0 0.0 0.00 1.54 0.00 71 1012.6
20260503041201 39 314 0.0 0.0 0.00 1.56 0.00 69 1012.6
20260503040702 39 312 0.0 0.0 0.00 1.58 0.00 69 1012.5
20260503040201 39 312 0.0 0.0 0.00 1.58 0.00 68 1012.6
20260503035700 40 278 0.0 0.0 0.00 1.58 0.29 67 1012.6
20260503035159 40 331 0.0 0.0 0.00 1.58 0.29 67 1012.6
20260503034659 40 331 0.0 0.0 0.00 1.58 0.29 67 1012.5
20260503034203 41 321 0.0 0.0 0.00 1.58 0.29 65 1012.6
20260503033204 41 331 0.0 0.0 0.00 1.58 0.29 63 1012.6
20260503033159 41 321 0.0 0.0 0.00 1.58 0.29 64 1012.6
20260503032200 41 319 0.0 0.0 0.00 1.58 0.29 63 1012.5
20260503031658 42 327 0.0 0.0 0.00 1.58 0.29 62 1012.5
20260503031200 42 299 0.0 0.0 0.00 1.58 0.29 61 1012.7
20260503030701 42 329 0.0 0.0 0.00 1.59 0.29 61 1012.6
20260503030657 42 337 0.0 0.0 0.00 1.59 0.29 61 1012.7